Regional Weather Roundup
Issued by NWS

Home | Current Version | Previous Version | Graphics & Text | Print | Product List | Glossary Off
Versions: 1 2 3 4 5 6 7 8 9 10 11 12 13 14 15 16 17 18 19 20 21 22 23 24 25 26 27 28 29 30 31 32 33 34 35 36 37 38 39 40 41 42 43 44 45 46 47 48 49 50

000
ASUS43 KTOP 171408
RWRKS

WEATHER ROUNDUP FOR KANSAS
NATIONAL WEATHER SERVICE GOODLAND KS
800 AM CST TUE JAN 17 2017

NOTE:  "FAIR" INDICATES FEW OR NO CLOUDS BELOW 12,000 FEET WITH NO
SIGNIFICANT WEATHER AND/OR OBSTRUCTIONS TO VISIBILITY.

KSZ001>006-013>018-027>032-041>047-171500-
NORTHWEST KANSAS

CITY           SKY/WX    TMP DP  RH WIND       PRES   REMARKS
GOODLAND       CLOUDY    23  18  81 W8        30.09R
HAYS           CLOUDY    32  28  85 NW6       30.12R
HILL CITY      CLEAR     29  24  82 NW8       30.10S
RUSSELL        CLOUDY    31  27  85 NW8       30.10R
$$

KSZ061>065-074>080-084>089-171500-
SOUTHWEST KANSAS

CITY           SKY/WX    TMP DP  RH WIND       PRES   REMARKS
DODGE CITY     CLOUDY    34  30  85 NW10      30.12R WCI  26
ELKHART          N/A     31  26  82 W6          N/A
GARDEN CITY    CLOUDY    33  30  88 NW5       30.11S
GREAT BEND     CLOUDY    32  29  88 NW5       30.12R
LIBERAL        CLEAR     30  27  86 NW7       30.13S
PRATT          CLOUDY    30  28  92 W7        30.12R
$$

KSZ066>073-081>083-090>101-171500-
SOUTHEAST KANSAS

CITY           SKY/WX    TMP DP  RH WIND       PRES   REMARKS
CHANUTE        CLOUDY    36  34  92 NW8       30.11R FOG
HUTCHINSON     CLOUDY    30  28  92 NW5       30.10F
MEDICINE LODGE   N/A     29  27  92 W5        30.14R
NEWTON         PTCLDY    32  30  92 NW6       30.10F
PARSONS        CLOUDY    37  35  92 W6        30.12S FOG
WICHITA INTL   PTCLDY    33  31  92 NW8       30.10F
WICHITA JABRA  CLEAR     33  31  92 NW7       30.09F
WICHITA MCCONL PTCLDY    34  30  85 NW8       30.09F
WINFIELD       CLOUDY    36  33  89 NW5       30.13R
$$

KSZ007>012-019>026-033>040-048>060-102>105-171500-
NORTHEAST KANSAS

CITY           SKY/WX    TMP DP  RH WIND       PRES   REMARKS
CONCORDIA      CLOUDY    28  25  88 NW8       30.09R
EMPORIA        CLOUDY    33  32  96 W6        30.09R
LAWRENCE       CLOUDY    35  34  96 W8        30.08R
MANHATTAN      MOCLDY    33  30  88 W5        30.10R
MARYSVILLE     PTCLDY    30  27  86 NW13      30.08R WCI  20
OLATHE IND     CLOUDY    34  33  96 W7        30.07R FOG
OLATHE EXE     CLOUDY    33  33 100 NW7       30.06R FOG
SALINA         CLOUDY    32  28  85 NW7       30.12R
TOPEKA BILLARD CLOUDY    35  31  85 NW6       30.08R
TOPEKA FORBES  CLOUDY    35  32  88 W6        30.08R
$$




USA.gov is the U.S. government's official web portal to all federal, state and local government web resources and services.